Time,TemperatureF,DewpointF,PressureIn,WindDirection,WindDirectionDegrees,WindSpeedMPH,WindSpeedGustMPH,Humidity,HourlyPrecipIn,Conditions,Clouds,dailyrainin,SoftwareType,DateUTC
2013-06-13 00:01:00,54.0,46.0,30.15,West,279,5.0,7.0,74,-99.99,,,-99.99,,2013-06-13 07:01:00,
2013-06-13 00:11:00,54.0,47.0,30.15,West,279,6.0,11.0,75,-99.99,,,-99.99,,2013-06-13 07:11:00,
2013-06-13 00:22:00,54.0,47.0,30.15,West,279,6.0,11.0,75,-99.99,,,-99.99,,2013-06-13 07:22:00,
2013-06-13 00:33:00,54.0,47.0,30.14,West,264,5.0,9.0,76,-99.99,,,-99.99,,2013-06-13 07:33:00,
2013-06-13 00:42:00,54.0,47.0,30.14,West,269,8.0,12.0,76,-99.99,,,-99.99,,2013-06-13 07:42:00,
2013-06-13 00:52:00,54.0,47.0,30.14,West,276,8.0,14.0,76,-99.99,,,-99.99,,2013-06-13 07:52:00,
2013-06-13 01:01:00,54.0,47.0,30.15,West,274,7.0,12.0,76,-99.99,,,-99.99,,2013-06-13 08:01:00,
2013-06-13 01:11:00,54.0,46.0,30.15,WNW,285,5.0,11.0,74,-99.99,,,-99.99,,2013-06-13 08:11:00,
2013-06-13 01:22:00,54.0,46.0,30.15,WNW,283,6.0,11.0,74,-99.99,,,-99.99,,2013-06-13 08:22:00,
2013-06-13 01:32:00,54.0,46.0,30.15,WNW,283,6.0,11.0,74,-99.99,,,-99.99,,2013-06-13 08:32:00,
2013-06-13 01:42:00,54.0,46.0,30.14,West,270,5.0,9.0,75,-99.99,,,-99.99,,2013-06-13 08:42:00,
2013-06-13 01:52:00,54.0,46.0,30.14,West,266,5.0,8.0,76,-99.99,,,-99.99,,2013-06-13 08:52:00,
2013-06-13 02:01:00,54.0,47.0,30.14,West,276,6.0,11.0,77,-99.99,,,-99.99,,2013-06-13 09:01:00,
2013-06-13 02:11:00,53.0,47.0,30.14,WNW,294,6.0,13.0,77,-99.99,,,-99.99,,2013-06-13 09:11:00,
2013-06-13 02:22:00,53.0,47.0,30.14,WNW,283,6.0,12.0,77,-99.99,,,-99.99,,2013-06-13 09:22:00,
2013-06-13 02:32:00,54.0,47.0,30.14,West,270,7.0,11.0,76,-99.99,,,-99.99,,2013-06-13 09:32:00,
2013-06-13 02:42:00,54.0,46.0,30.14,West,264,8.0,14.0,74,-99.99,,,-99.99,,2013-06-13 09:42:00,
2013-06-13 02:52:00,54.0,46.0,30.14,West,280,7.0,11.0,75,-99.99,,,-99.99,,2013-06-13 09:52:00,
2013-06-13 03:01:00,54.0,46.0,30.14,WNW,283,8.0,15.0,76,-99.99,,,-99.99,,2013-06-13 10:01:00,
2013-06-13 03:11:00,54.0,46.0,30.14,WNW,284,11.0,18.0,76,-99.99,,,-99.99,,2013-06-13 10:11:00,
2013-06-13 03:22:00,54.0,46.0,30.14,WNW,288,10.0,17.0,77,-99.99,,,-99.99,,2013-06-13 10:22:00,
2013-06-13 03:33:00,53.0,47.0,30.14,WNW,288,11.0,20.0,79,-99.99,,,-99.99,,2013-06-13 10:33:00,
2013-06-13 03:42:00,53.0,47.0,30.14,WNW,287,8.0,14.0,79,-99.99,,,-99.99,,2013-06-13 10:42:00,
2013-06-13 03:53:00,53.0,47.0,30.14,WNW,293,10.0,17.0,79,-99.99,,,-99.99,,2013-06-13 10:53:00,
2013-06-13 04:01:00,53.0,47.0,30.14,WNW,293,10.0,17.0,79,-99.99,,,-99.99,,2013-06-13 11:01:00,
2013-06-13 04:11:00,53.0,46.0,30.14,WNW,285,11.0,19.0,77,-99.99,,,-99.99,,2013-06-13 11:11:00,
2013-06-13 04:23:00,53.0,46.0,30.14,WNW,284,8.0,17.0,76,-99.99,,,-99.99,,2013-06-13 11:23:00,
2013-06-13 04:32:00,53.0,46.0,30.14,WNW,284,8.0,17.0,76,-99.99,,,-99.99,,2013-06-13 11:32:00,
2013-06-13 04:42:00,53.0,46.0,30.14,West,281,10.0,17.0,76,-99.99,,,-99.99,,2013-06-13 11:42:00,
2013-06-13 04:52:00,53.0,46.0,30.14,West,278,11.0,18.0,76,-99.99,,,-99.99,,2013-06-13 11:52:00,
2013-06-13 05:01:00,53.0,46.0,30.13,West,270,9.0,15.0,77,-99.99,,,-99.99,,2013-06-13 12:01:00,
2013-06-13 05:11:00,53.0,46.0,30.13,West,279,9.0,18.0,77,-99.99,,,-99.99,,2013-06-13 12:11:00,
2013-06-13 05:22:00,52.0,46.0,30.13,West,274,12.0,22.0,77,-99.99,,,-99.99,,2013-06-13 12:22:00,
2013-06-13 05:34:00,52.0,46.0,30.14,West,270,11.0,17.0,77,-99.99,,,-99.99,,2013-06-13 12:34:00,
2013-06-13 05:42:00,52.0,45.0,30.14,West,278,10.0,17.0,77,-99.99,,,-99.99,,2013-06-13 12:42:00,
2013-06-13 05:52:00,52.0,46.0,30.14,West,276,8.0,15.0,78,-99.99,,,-99.99,,2013-06-13 12:52:00,
2013-06-13 06:01:00,52.0,46.0,30.14,West,281,9.0,17.0,77,-99.99,,,-99.99,,2013-06-13 13:01:00,
2013-06-13 06:11:00,52.0,46.0,30.14,West,274,10.0,16.0,78,-99.99,,,-99.99,,2013-06-13 13:11:00,
2013-06-13 06:21:00,52.0,46.0,30.14,West,274,10.0,16.0,78,-99.99,,,-99.99,,2013-06-13 13:21:00,
2013-06-13 06:32:00,52.0,45.0,30.15,West,272,9.0,17.0,77,-99.99,,,-99.99,,2013-06-13 13:32:00,
2013-06-13 06:43:00,52.0,46.0,30.15,WNW,282,10.0,16.0,78,-99.99,,,-99.99,,2013-06-13 13:43:00,
2013-06-13 06:53:00,52.0,46.0,30.16,West,271,9.0,17.0,78,-99.99,,,-99.99,,2013-06-13 13:53:00,
2013-06-13 07:02:00,52.0,46.0,30.16,West,278,9.0,15.0,78,-99.99,,,-99.99,,2013-06-13 14:02:00,
2013-06-13 07:11:00,52.0,44.0,30.16,WNW,288,12.0,17.0,74,-99.99,,,-99.99,,2013-06-13 14:11:00,
2013-06-13 07:22:00,52.0,44.0,30.16,WNW,288,12.0,17.0,74,-99.99,,,-99.99,,2013-06-13 14:22:00,
2013-06-13 07:33:00,51.0,44.0,30.16,WNW,290,11.0,20.0,76,-99.99,,,-99.99,,2013-06-13 14:33:00,
2013-06-13 07:43:00,51.0,46.0,30.16,WNW,291,9.0,15.0,82,-99.99,,,-99.99,,2013-06-13 14:43:00,
2013-06-13 07:53:00,51.0,46.0,30.16,WNW,290,9.0,13.0,85,-99.99,,,-99.99,,2013-06-13 14:53:00,
2013-06-13 08:01:00,50.0,46.0,30.16,WNW,290,8.0,13.0,85,-99.99,,,-99.99,,2013-06-13 15:01:00,
2013-06-13 08:12:00,50.0,46.0,30.16,West,277,7.0,12.0,86,-99.99,,,-99.99,,2013-06-13 15:12:00,
2013-06-13 08:21:00,50.0,47.0,30.16,West,268,6.0,10.0,87,-99.99,,,-99.99,,2013-06-13 15:21:00,
2013-06-13 08:33:00,51.0,47.0,30.16,West,273,4.0,8.0,87,-99.99,,,-99.99,,2013-06-13 15:33:00,
2013-06-13 08:43:00,51.0,47.0,30.17,West,275,3.0,5.0,87,-99.99,,,-99.99,,2013-06-13 15:43:00,
2013-06-13 08:53:00,51.0,47.0,30.17,WNW,286,3.0,4.0,86,-99.99,,,-99.99,,2013-06-13 15:53:00,
2013-06-13 09:01:00,51.0,47.0,30.17,West,280,6.0,10.0,86,-99.99,,,-99.99,,2013-06-13 16:01:00,
2013-06-13 09:11:00,51.0,47.0,30.17,WNW,293,9.0,13.0,85,-99.99,,,-99.99,,2013-06-13 16:11:00,
2013-06-13 09:22:00,52.0,47.0,30.17,WNW,290,9.0,15.0,85,-99.99,,,-99.99,,2013-06-13 16:22:00,
2013-06-13 09:33:00,52.0,47.0,30.17,WNW,287,9.0,15.0,84,-99.99,,,-99.99,,2013-06-13 16:33:00,
2013-06-13 09:43:00,53.0,48.0,30.17,WNW,293,10.0,17.0,83,-99.99,,,-99.99,,2013-06-13 16:43:00,
2013-06-13 09:53:00,54.0,49.0,30.17,WNW,288,8.0,15.0,83,-99.99,,,-99.99,,2013-06-13 16:53:00,
2013-06-13 10:02:00,55.0,48.0,30.17,WNW,285,10.0,16.0,78,-99.99,,,-99.99,,2013-06-13 17:02:00,
2013-06-13 10:11:00,56.0,49.0,30.17,WNW,283,10.0,16.0,77,-99.99,,,-99.99,,2013-06-13 17:11:00,
2013-06-13 10:24:00,56.0,49.0,30.17,WNW,283,10.0,16.0,77,-99.99,,,-99.99,,2013-06-13 17:24:00,
2013-06-13 10:32:00,56.0,49.0,30.17,WNW,285,10.0,17.0,76,-99.99,,,-99.99,,2013-06-13 17:32:00,
2013-06-13 10:43:00,57.0,48.0,30.16,WNW,295,11.0,17.0,70,-99.99,,,-99.99,,2013-06-13 17:43:00,
2013-06-13 10:53:00,58.0,48.0,30.16,WNW,289,11.0,20.0,70,-99.99,,,-99.99,,2013-06-13 17:53:00,
2013-06-13 11:02:00,57.0,48.0,30.16,WNW,292,10.0,17.0,70,-99.99,,,-99.99,,2013-06-13 18:02:00,
2013-06-13 11:11:00,58.0,49.0,30.17,WNW,284,9.0,18.0,71,-99.99,,,-99.99,,2013-06-13 18:11:00,
2013-06-13 11:22:00,58.0,49.0,30.17,WNW,287,10.0,19.0,70,-99.99,,,-99.99,,2013-06-13 18:22:00,
2013-06-13 11:33:00,59.0,49.0,30.17,WNW,289,11.0,19.0,69,-99.99,,,-99.99,,2013-06-13 18:33:00,
2013-06-13 11:43:00,59.0,49.0,30.16,WNW,287,12.0,19.0,68,-99.99,,,-99.99,,2013-06-13 18:43:00,
2013-06-13 11:52:00,60.0,49.0,30.16,WNW,291,15.0,23.0,67,-99.99,,,-99.99,,2013-06-13 18:52:00,
2013-06-13 12:01:00,60.0,49.0,30.17,WNW,290,14.0,21.0,66,-99.99,,,-99.99,,2013-06-13 19:01:00,
2013-06-13 12:11:00,59.0,48.0,30.17,WNW,288,13.0,23.0,65,-99.99,,,-99.99,,2013-06-13 19:11:00,
2013-06-13 12:22:00,60.0,48.0,30.16,WNW,293,14.0,24.0,65,-99.99,,,-99.99,,2013-06-13 19:22:00,
2013-06-13 12:32:00,60.0,48.0,30.16,WNW,295,14.0,23.0,64,-99.99,,,-99.99,,2013-06-13 19:32:00,
2013-06-13 12:43:00,60.0,48.0,30.17,WNW,290,15.0,24.0,64,-99.99,,,-99.99,,2013-06-13 19:43:00,
2013-06-13 12:53:00,61.0,47.0,30.17,West,277,14.0,26.0,60,-99.99,,,-99.99,,2013-06-13 19:53:00,
2013-06-13 13:01:00,60.0,47.0,30.17,West,281,10.0,17.0,61,-99.99,,,-99.99,,2013-06-13 20:01:00,
2013-06-13 13:11:00,61.0,46.0,30.17,West,273,12.0,21.0,58,-99.99,,,-99.99,,2013-06-13 20:11:00,
2013-06-13 13:22:00,61.0,45.0,30.17,WNW,283,12.0,23.0,56,-99.99,,,-99.99,,2013-06-13 20:22:00,
2013-06-13 13:32:00,61.0,45.0,30.17,WNW,282,13.0,27.0,55,-99.99,,,-99.99,,2013-06-13 20:32:00,
2013-06-13 13:43:00,61.0,46.0,30.17,West,276,14.0,21.0,56,-99.99,,,-99.99,,2013-06-13 20:43:00,
2013-06-13 13:53:00,62.0,46.0,30.17,WNW,292,11.0,20.0,55,-99.99,,,-99.99,,2013-06-13 20:53:00,
2013-06-13 14:01:00,62.0,45.0,30.17,WNW,290,15.0,23.0,53,-99.99,,,-99.99,,2013-06-13 21:01:00,
2013-06-13 14:11:00,63.0,46.0,30.17,WNW,284,12.0,22.0,53,-99.99,,,-99.99,,2013-06-13 21:11:00,
2013-06-13 14:22:00,64.0,46.0,30.17,West,280,9.0,18.0,52,-99.99,,,-99.99,,2013-06-13 21:22:00,
2013-06-13 14:34:00,63.0,45.0,30.17,WNW,295,11.0,21.0,51,-99.99,,,-99.99,,2013-06-13 21:34:00,
2013-06-13 14:43:00,63.0,45.0,30.16,WNW,284,11.0,18.0,50,-99.99,,,-99.99,,2013-06-13 21:43:00,
2013-06-13 14:52:00,63.0,45.0,30.16,WNW,283,10.0,22.0,50,-99.99,,,-99.99,,2013-06-13 21:52:00,
2013-06-13 15:01:00,64.0,44.0,30.16,WNW,284,12.0,21.0,48,-99.99,,,-99.99,,2013-06-13 22:01:00,
2013-06-13 15:11:00,64.0,45.0,30.16,WNW,287,14.0,24.0,50,-99.99,,,-99.99,,2013-06-13 22:11:00,
2013-06-13 15:22:00,64.0,45.0,30.16,WNW,287,14.0,24.0,50,-99.99,,,-99.99,,2013-06-13 22:22:00,
2013-06-13 15:32:00,64.0,45.0,30.16,West,274,11.0,20.0,50,-99.99,,,-99.99,,2013-06-13 22:32:00,
2013-06-13 15:42:00,64.0,45.0,30.17,West,276,13.0,27.0,49,-99.99,,,-99.99,,2013-06-13 22:42:00,
2013-06-13 15:52:00,63.0,43.0,30.16,West,270,15.0,26.0,47,-99.99,,,-99.99,,2013-06-13 22:52:00,
2013-06-13 16:01:00,64.0,45.0,30.17,West,271,14.0,25.0,50,-99.99,,,-99.99,,2013-06-13 23:01:00,
2013-06-13 16:11:00,63.0,45.0,30.17,West,272,15.0,25.0,51,-99.99,,,-99.99,,2013-06-13 23:11:00,
2013-06-13 16:22:00,63.0,45.0,30.18,West,273,12.0,24.0,52,-99.99,,,-99.99,,2013-06-13 23:22:00,
2013-06-13 16:32:00,63.0,44.0,30.18,West,269,14.0,24.0,49,-99.99,,,-99.99,,2013-06-13 23:32:00,
2013-06-13 16:43:00,63.0,45.0,30.18,West,274,12.0,24.0,52,-99.99,,,-99.99,,2013-06-13 23:43:00,
2013-06-13 16:52:00,63.0,45.0,30.18,West,265,15.0,31.0,51,-99.99,,,-99.99,,2013-06-13 23:52:00,
2013-06-13 17:01:00,63.0,45.0,30.18,West,267,12.0,20.0,51,-99.99,,,-99.99,,2013-06-14 00:01:00,
2013-06-13 17:11:00,64.0,46.0,30.18,West,281,12.0,23.0,51,-99.99,,,-99.99,,2013-06-14 00:11:00,
2013-06-13 17:22:00,64.0,46.0,30.18,West,271,11.0,22.0,51,-99.99,,,-99.99,,2013-06-14 00:22:00,
2013-06-13 17:33:00,64.0,46.0,30.18,West,271,11.0,22.0,51,-99.99,,,-99.99,,2013-06-14 00:33:00,
2013-06-13 17:43:00,64.0,45.0,30.19,West,271,12.0,20.0,51,-99.99,,,-99.99,,2013-06-14 00:43:00,
2013-06-13 17:53:00,63.0,45.0,30.19,West,273,12.0,19.0,51,-99.99,,,-99.99,,2013-06-14 00:53:00,
2013-06-13 18:01:00,63.0,45.0,30.19,West,275,12.0,20.0,52,-99.99,,,-99.99,,2013-06-14 01:01:00,
2013-06-13 18:11:00,63.0,45.0,30.19,West,280,8.0,20.0,51,-99.99,,,-99.99,,2013-06-14 01:11:00,
2013-06-13 18:22:00,64.0,45.0,30.19,WNW,289,10.0,17.0,51,-99.99,,,-99.99,,2013-06-14 01:22:00,
2013-06-13 18:32:00,64.0,45.0,30.20,West,276,9.0,16.0,51,-99.99,,,-99.99,,2013-06-14 01:32:00,
2013-06-13 18:43:00,64.0,45.0,30.20,West,276,9.0,16.0,51,-99.99,,,-99.99,,2013-06-14 01:43:00,
2013-06-13 18:52:00,63.0,47.0,30.20,West,264,9.0,19.0,55,-99.99,,,-99.99,,2013-06-14 01:52:00,
2013-06-13 19:02:00,63.0,47.0,30.20,West,265,7.0,12.0,54,-99.99,,,-99.99,,2013-06-14 02:02:00,
2013-06-13 19:11:00,63.0,47.0,30.20,West,265,7.0,12.0,54,-99.99,,,-99.99,,2013-06-14 02:11:00,
2013-06-13 19:22:00,62.0,47.0,30.20,West,271,7.0,12.0,57,-99.99,,,-99.99,,2013-06-14 02:22:00,
2013-06-13 19:32:00,62.0,47.0,30.20,WNW,291,6.0,13.0,58,-99.99,,,-99.99,,2013-06-14 02:32:00,
2013-06-13 19:43:00,62.0,47.0,30.20,West,267,8.0,16.0,58,-99.99,,,-99.99,,2013-06-14 02:43:00,
2013-06-13 19:52:00,61.0,47.0,30.20,West,270,10.0,14.0,58,-99.99,,,-99.99,,2013-06-14 02:52:00,
2013-06-13 20:02:00,61.0,47.0,30.20,West,269,11.0,18.0,60,-99.99,,,-99.99,,2013-06-14 03:02:00,
2013-06-13 20:11:00,61.0,48.0,30.21,WNW,283,8.0,13.0,61,-99.99,,,-99.99,,2013-06-14 03:11:00,
2013-06-13 20:22:00,61.0,47.0,30.21,West,280,6.0,12.0,60,-99.99,,,-99.99,,2013-06-14 03:22:00,
2013-06-13 20:34:00,61.0,47.0,30.21,West,280,6.0,12.0,60,-99.99,,,-99.99,,2013-06-14 03:34:00,
2013-06-13 20:43:00,60.0,47.0,30.21,West,281,6.0,12.0,63,-99.99,,,-99.99,,2013-06-14 03:43:00,
2013-06-13 20:52:00,59.0,47.0,30.21,West,278,8.0,13.0,64,-99.99,,,-99.99,,2013-06-14 03:52:00,
2013-06-13 21:01:00,59.0,47.0,30.21,West,272,6.0,11.0,66,-99.99,,,-99.99,,2013-06-14 04:01:00,
2013-06-13 21:12:00,58.0,48.0,30.21,WNW,283,5.0,8.0,68,-99.99,,,-99.99,,2013-06-14 04:12:00,
2013-06-13 21:22:00,58.0,48.0,30.21,West,281,6.0,11.0,70,-99.99,,,-99.99,,2013-06-14 04:22:00,
2013-06-13 21:33:00,57.0,48.0,30.21,West,274,8.0,14.0,70,-99.99,,,-99.99,,2013-06-14 04:33:00,
2013-06-13 21:43:00,57.0,48.0,30.21,West,270,7.0,14.0,72,-99.99,,,-99.99,,2013-06-14 04:43:00,
2013-06-13 21:53:00,56.0,48.0,30.21,WNW,283,7.0,11.0,73,-99.99,,,-99.99,,2013-06-14 04:53:00,
2013-06-13 22:01:00,56.0,49.0,30.21,West,273,8.0,14.0,74,-99.99,,,-99.99,,2013-06-14 05:01:00,
2013-06-13 22:11:00,56.0,48.0,30.22,WNW,283,8.0,12.0,75,-99.99,,,-99.99,,2013-06-14 05:11:00,
2013-06-13 22:22:00,56.0,48.0,30.22,West,281,7.0,14.0,76,-99.99,,,-99.99,,2013-06-14 05:22:00,
2013-06-13 22:33:00,56.0,49.0,30.22,WNW,300,4.0,11.0,77,-99.99,,,-99.99,,2013-06-14 05:33:00,
2013-06-13 22:43:00,56.0,49.0,30.23,WNW,295,6.0,13.0,77,-99.99,,,-99.99,,2013-06-14 05:43:00,
2013-06-13 22:52:00,56.0,49.0,30.23,WSW,254,5.0,9.0,78,-99.99,,,-99.99,,2013-06-14 05:52:00,
2013-06-13 23:02:00,56.0,49.0,30.23,West,259,7.0,12.0,78,-99.99,,,-99.99,,2013-06-14 06:02:00,
2013-06-13 23:12:00,55.0,49.0,30.23,WNW,283,9.0,14.0,78,-99.99,,,-99.99,,2013-06-14 06:12:00,
2013-06-13 23:22:00,56.0,49.0,30.23,West,273,8.0,15.0,78,-99.99,,,-99.99,,2013-06-14 06:22:00,
2013-06-13 23:33:00,56.0,49.0,30.24,West,278,5.0,9.0,78,-99.99,,,-99.99,,2013-06-14 06:33:00,
2013-06-13 23:43:00,56.0,49.0,30.24,WNW,285,9.0,16.0,78,-99.99,,,-99.99,,2013-06-14 06:43:00,
2013-06-13 23:52:00,55.0,49.0,30.24,West,265,7.0,16.0,78,-99.99,,,-99.99,,2013-06-14 06:52:00,